Flag for U.S.A. Weather past 2 weeks in Centennial, Colorado, U.S.A.

Now
45 °F

Partly sunny.


Feels Like: 39 °F
Forecast: 30 / 47 °F
Wind: 12 mph from Southeast

Location: Centennial Airport

Current Time: Jan 29, 2015 at 4:10:35 PM

Latest Report: Jan 29, 2015 at 2:53 PM


Visibility: 10 mi

Pressure: 30.41 "Hg

Humidity: 49%

Dew point: 27 °F

Location of CentennialLocation

Historic Weather in Centennial — Graph

°F

Centennial temperature yesterday

Maximum temperature yesterday: 58 °F (at 12:53 PM)
Minimum temperature yesterday: 34 °F (at 10:53 PM)
Average temperature yesterday: 45 °F

Past Weeks' High & Low Weather Summary

 TemperatureHumidityPressure
High72 °F (Jan 27, 1:53 PM)100% (Jan 20, 3:01 AM)30.58 "Hg (Jan 20, 3:01 AM)
Low7 °F (Jan 22, 3:53 AM)11% (Jan 17, 1:53 PM)29.82 "Hg (Jan 16, 3:53 PM)
Average39 °F49%30.18 "Hg
* Reported Jan 14 2:53 PM — Jan 29 2:53 PM, Centennial, Weather by CustomWeather, © 2014

Note: Actual official high and low records may vary slightly from our data, if they occured in-between our weather recording intervals... More about our weather records

Advertising

Centennial weather history for previous 24 hours

 ConditionsComfort  
Time TempWeatherWind HumidityBarometerVisibility
2:53 PM
Jan 29
45 °FPartly sunny.12 mph49%30.41 "Hg10 mi
1:53 PM44 °FPartly sunny.12 mph51%30.43 "Hg10 mi
12:53 PM42 °FCloudy.9 mph53%30.47 "Hg10 mi
11:53 AM39 °FCloudy.7 mph60%30.51 "Hg10 mi
10:53 AM37 °FMostly cloudy.5 mph65%30.58 "Hg10 mi
9:53 AM37 °FCloudy.5 mph65%30.56 "Hg10 mi
8:53 AM36 °FCloudy.6 mph67%30.56 "Hg10 mi
7:53 AM36 °FOvercast.6 mph70%30.53 "Hg10 mi
6:53 AM36 °FMostly cloudy.3 mph70%30.48 "Hg10 mi
5:53 AM36 °FOvercast.5 mph73%30.45 "Hg10 mi
4:53 AM36 °FOvercast.6 mph73%30.41 "Hg10 mi
3:53 AM37 °FOvercast.6 mph73%30.39 "Hg10 mi
2:53 AM37 °FOvercast.7 mph76%30.37 "Hg10 mi
1:53 AM37 °FOvercast.6 mph76%30.36 "Hg10 mi
12:53 AM37 °FOvercast.5 mph76%30.34 "Hg10 mi
11:53 PM
Jan 28
38 °FPartly cloudy.7 mph73%30.32 "Hg10 mi
10:53 PM34 °FPartly cloudy.3 mph85%30.32 "Hg10 mi
9:53 PM36 °FPassing clouds.No wind82%30.29 "Hg10 mi
8:53 PM36 °FPassing clouds.9 mph85%30.27 "Hg10 mi
7:53 PM39 °FPassing clouds.12 mph76%30.27 "Hg10 mi
6:53 PM45 °FPassing clouds.8 mph42%30.20 "Hg10 mi
5:53 PM48 °FPassing clouds.7 mph37%30.14 "Hg10 mi
4:53 PM53 °FPassing clouds.7 mph26%30.09 "Hg10 mi
Weather by CustomWeather, © 2014

See weather overviewHow to use our weather pages